Regional Weather Roundup
Issued by NWS Newport/Morehead, NC

Current Version | Previous Version | Text Only | Print | Product List | Glossary On
Versions: 1 2 3 4 5 6 7 8 9 10 11 12 13 14 15 16 17 18 19 20 21 22 23 24 25 26 27 28 29 30 31 32 33 34 35 36 37 38 39 40 41 42 43 44 45 46 47 48 49 50
000 ASUS42 KMHX 010613 RWRMHX WEATHER ROUNDUP FOR EASTERN NORTH CAROLINA NATIONAL WEATHER SERVICE NEWPORT/MOREHEAD CITY NC 200 AM EDT WED JUL 01 2015 NOTE: "FAIR" INDICATES FEW OR NO CLOUDS BELOW 12,000 FEET WITH NO SIGNIFICANT WEATHER AND/OR OBSTRUCTIONS TO VISIBILITY NCZ015>017-031-032-045>047-102-103-010700- NORTH COAST CITY SKY/WX TMP DP RH WIND PRES REMARKS EDENTON CLOUDY 73 67 82 CALM 29.90F ELIZABETH CITY HAZE 72 67 84 S6 29.89 VSB 1/2 KITTY HAWK MOCLDY 80 69 68 SW9 29.89F MANTEO MOCLDY 79 71 75 SW12 29.91S $$ NCZ045>047-081-094-103-104-010700- CENTRAL COAST CITY SKY/WX TMP DP RH WIND PRES REMARKS FRISCO PTCLDY 79 73 82 SW16G22 29.94 SWANQUARTER N/A 81 N/A N/A SW16G23 29.88S $$ NCZ095-097-098-100-101-010700- SOUTHERN COAST CITY SKY/WX TMP DP RH WIND PRES REMARKS BEAUFORT MOCLDY 80 74 81 SW20G25 29.94F CEDAR ISLAND N/A 79 N/A N/A SW8G16 29.97S JACKSONVILLE MOCLDY 79 71 76 SW9 29.94R PINEY ISLAND MOCLDY N/A N/A N/A S14G20 29.93F WILMINGTON PTCLDY 78 69 73 SW9 29.96 $$ NCZ011>013-027>030-043-044-078>080-089-090>093-098-010700- COASTAL PLAIN CITY SKY/WX TMP DP RH WIND PRES REMARKS AHOSKIE MOCLDY 67 67 97 S5 29.90F CLINTON PTCLDY 69 69 99 CALM 29.95F ELIZABETHTOWN PTCLDY 71 70 97 S5 29.97R GOLDSBORO MOCLDY 71 68 90 VRB5 29.92S GREENVILLE CLOUDY 73 68 83 SW5 29.96R HAVELOCK CLOUDY 80 72 76 SW13 29.94F KENANSVILLE MOCLDY 72 67 84 CALM 29.97S KINSTON CLOUDY 75 66 73 SW9 29.96R NEW BERN CLOUDY 78 70 76 SW6 29.95 RICHLANDS CLOUDY 73 63 68 W5 29.95S ROCKY MOUNT PTCLDY 71 68 90 S6 29.92 WASHINGTON CLOUDY 76 68 75 SW6 29.93R WHITEVILLE MOCLDY 71 68 91 SW3 29.96S $$ AMZ130-135-150-152-154-156-158-170-250-252-270-ANZ085-086-088-633-658-670-010700- MARINE OBSERVATIONS STATION/POSITION TIME TEMP WIND PRES WAVE SWELL AIR SEA DIR/SP/G HT/PER HT/PER (UTC) (F) (DEG/KT/KT) (MB) (FT/S) (FT/S) CHESAPEAKE LIGHT 0500 76 240/ 11/ 12 1012.5 64 E VA BEACH 0550 79 76 220/ 16/ 19 1012.0 5/ 8 2/ 8 DUCK 0500 77 65 290/ 7/ 8 1011.9 2 E DUCK 0511 71 N/A 2/ 8 OREGON INLET 0500 81 83 220/ 20/ 25 1012.9 13E OREGON INLT 0600 73 N/A 4/ 5 HATTERAS CG 0500 80 82 220/ 14/ 20 1013.7 DIAMOND BUOY 0550 82 82 220/ 23/ 27 1013.7 6/ 6 2/11 CAPE LOOKOUT 0500 80 210/ 12/ 16 1014.3 BEAUFORT LAB 0500 80 81 210/ 13/ 19 1013.6 30 SE NEW RVR IN NOT AVBL 27 SE WRIGHTSVLE 0500 80 220/ 16/ 19 N/A 5 SE WRIGHTSVLE 0508 80 79 210/ 19/ 25 1013.9 225 S CAPE HAT 0550 81 80 220/ 16/ 17 1018.3 6/ 8 3/ 8 41 SE CHARLESTON 0550 81 82 240/ 14/ 16 1015.4 4/ 5 2/ 7 $$

USA.gov is the U.S. government's official web portal to all federal, state and local government web resources and services.